Location: Mount Wilson Observatory
(34.2257°N, 118.0571°W)
Time: 06:00:30
(UTC-07:00)

ATLAS 3B CENTAUR R/B - Visible Passes

Search period start: 24 July 2014 00:00
Search period end: 03 August 2014 00:00
Orbit: 228 x 8564 km, 28.2° (Epoch: 24 July)

Date Brightness Start Highest point End Pass type
(mag) Time Alt. Az. Time Alt. Az. Time Alt. Az.
25 Jul 6.8 05:24:13 10° SE 05:38:25 13° ESE 05:58:07 10° E visible
29 Jul 6.6 05:06:05 10° SSE 05:21:00 16° ESE 05:44:52 10° E visible
02 Aug 6.3 04:47:24 10° SSE 05:01:12 17° ESE 05:25:39 10° E visible
